Year,Month,Day,Hour,Minute,Value (Times are PST for windspeed in km/hr)
2009,03,14,00,00,4.80
2009,03,14,00,01,0.90
2009,03,14,00,02,0.10
2009,03,14,00,03,2.30
2009,03,14,00,04,1.20
2009,03,14,00,05,2.80
2009,03,14,00,06,3.20
2009,03,14,00,07,3.50
2009,03,14,00,08,2.70
2009,03,14,00,09,2.90
2009,03,14,00,10,1.30
2009,03,14,00,11,1.10
2009,03,14,00,12,5.00
2009,03,14,00,13,1.10
2009,03,14,00,14,0.10
2009,03,14,00,15,0.00
2009,03,14,00,16,0.00
2009,03,14,00,17,0.20
2009,03,14,00,18,0.60
2009,03,14,00,19,2.80
2009,03,14,00,20,4.80
2009,03,14,00,21,1.20
2009,03,14,00,22,0.10
2009,03,14,00,23,0.00
2009,03,14,00,24,0.00
2009,03,14,00,25,0.00
2009,03,14,00,26,1.50
2009,03,14,00,27,0.40
2009,03,14,00,28,0.00
2009,03,14,00,29,0.00
2009,03,14,00,30,0.00
2009,03,14,00,31,0.00
2009,03,14,00,32,0.00
2009,03,14,00,33,1.70
2009,03,14,00,34,0.00
2009,03,14,00,35,0.00
2009,03,14,00,36,0.00
2009,03,14,00,37,0.00
2009,03,14,00,38,0.00
2009,03,14,00,39,4.10
2009,03,14,00,40,4.30
2009,03,14,00,41,3.60
2009,03,14,00,42,1.90
2009,03,14,00,43,1.80
2009,03,14,00,44,0.00
2009,03,14,00,45,0.00
2009,03,14,00,46,0.10
2009,03,14,00,47,0.00
2009,03,14,00,48,0.00
2009,03,14,00,49,0.00
2009,03,14,00,50,0.00
2009,03,14,00,51,0.00
2009,03,14,00,52,0.00
2009,03,14,00,53,0.00
2009,03,14,00,54,0.00
2009,03,14,00,55,0.00
2009,03,14,00,56,0.00
2009,03,14,00,57,0.00
2009,03,14,00,58,0.00
2009,03,14,00,59,0.00
2009,03,14,01,00,0.00
2009,03,14,01,01,0.00
2009,03,14,01,02,0.00
2009,03,14,01,03,0.00
2009,03,14,01,04,0.00
2009,03,14,01,05,0.00
2009,03,14,01,06,0.80
2009,03,14,01,07,5.00
2009,03,14,01,08,1.90
2009,03,14,01,09,0.20
2009,03,14,01,10,1.20
2009,03,14,01,11,2.20
2009,03,14,01,12,0.60
2009,03,14,01,13,0.00
2009,03,14,01,14,0.00
2009,03,14,01,15,0.00
2009,03,14,01,16,0.00
2009,03,14,01,17,0.00
2009,03,14,01,18,0.00
2009,03,14,01,19,0.00
2009,03,14,01,20,0.00
2009,03,14,01,21,0.00
2009,03,14,01,22,0.00
2009,03,14,01,23,0.00
2009,03,14,01,24,0.00
2009,03,14,01,25,0.00
2009,03,14,01,26,0.00
2009,03,14,01,27,0.00
2009,03,14,01,28,0.70
2009,03,14,01,29,0.00
2009,03,14,01,30,0.00
2009,03,14,01,31,0.00
2009,03,14,01,32,0.00
2009,03,14,01,33,0.00
2009,03,14,01,34,0.00
2009,03,14,01,35,0.00
2009,03,14,01,36,0.00
2009,03,14,01,37,0.10
2009,03,14,01,38,0.40
2009,03,14,01,39,0.00
2009,03,14,01,40,0.50
2009,03,14,01,41,0.00
2009,03,14,01,42,0.00
2009,03,14,01,43,0.00
2009,03,14,01,44,0.00
2009,03,14,01,45,1.40
2009,03,14,01,46,0.20
2009,03,14,01,47,0.00
2009,03,14,01,48,0.00
2009,03,14,01,49,0.00
2009,03,14,01,50,0.00
2009,03,14,01,51,0.00
2009,03,14,01,52,0.00
2009,03,14,01,53,0.00
2009,03,14,01,54,0.00
2009,03,14,01,55,0.20
2009,03,14,01,56,0.90
2009,03,14,01,57,0.10
2009,03,14,01,58,0.00
2009,03,14,01,59,0.00
2009,03,14,02,00,0.00
2009,03,14,02,01,0.20
2009,03,14,02,02,0.30
2009,03,14,02,03,0.10
2009,03,14,02,04,0.00
2009,03,14,02,05,0.00
2009,03,14,02,06,0.00
2009,03,14,02,07,0.00
2009,03,14,02,08,0.00
2009,03,14,02,09,0.00
2009,03,14,02,10,0.00
2009,03,14,02,11,0.00
2009,03,14,02,12,0.00
2009,03,14,02,13,0.00
2009,03,14,02,14,0.00
2009,03,14,02,15,0.00
2009,03,14,02,16,1.20
2009,03,14,02,17,0.10
2009,03,14,02,18,0.00
2009,03,14,02,19,0.70
2009,03,14,02,20,2.00
2009,03,14,02,21,0.80
2009,03,14,02,22,1.30
2009,03,14,02,23,1.20
2009,03,14,02,24,0.30
2009,03,14,02,25,1.00
2009,03,14,02,26,4.00
2009,03,14,02,27,1.80
2009,03,14,02,28,2.50
2009,03,14,02,29,1.00
2009,03,14,02,30,4.20
2009,03,14,02,31,2.50
2009,03,14,02,32,2.30
2009,03,14,02,33,1.00
2009,03,14,02,34,3.60
2009,03,14,02,35,3.00
2009,03,14,02,36,0.10
2009,03,14,02,37,1.00
2009,03,14,02,38,2.90
2009,03,14,02,39,4.40
2009,03,14,02,40,3.10
2009,03,14,02,41,1.50
2009,03,14,02,42,2.60
2009,03,14,02,43,4.00
2009,03,14,02,44,2.30
2009,03,14,02,45,4.30
2009,03,14,02,46,0.00
2009,03,14,02,47,1.80
2009,03,14,02,48,2.70
2009,03,14,02,49,4.60
2009,03,14,02,50,4.60
2009,03,14,02,51,1.90
2009,03,14,02,52,3.80
2009,03,14,02,53,0.40
2009,03,14,02,54,1.50
2009,03,14,02,55,0.70
2009,03,14,02,56,5.30
2009,03,14,02,57,2.40
2009,03,14,02,58,4.60
2009,03,14,02,59,3.70
2009,03,14,03,00,1.90
2009,03,14,03,01,3.30
2009,03,14,03,02,4.00
2009,03,14,03,03,3.20
2009,03,14,03,04,2.20
2009,03,14,03,05,2.60
2009,03,14,03,06,2.30
2009,03,14,03,07,2.50
2009,03,14,03,08,3.20
2009,03,14,03,09,5.60
2009,03,14,03,10,3.50
2009,03,14,03,11,1.40
2009,03,14,03,12,1.40
2009,03,14,03,13,0.90
2009,03,14,03,14,8.70
2009,03,14,03,15,4.80
2009,03,14,03,16,3.50
2009,03,14,03,17,2.30
2009,03,14,03,18,1.40
2009,03,14,03,19,2.50
2009,03,14,03,20,3.30
2009,03,14,03,21,0.80
2009,03,14,03,22,2.40
2009,03,14,03,23,5.50
2009,03,14,03,24,6.80
2009,03,14,03,25,2.40
2009,03,14,03,26,6.30
2009,03,14,03,27,5.10
2009,03,14,03,28,3.10
2009,03,14,03,29,2.90
2009,03,14,03,30,1.00
2009,03,14,03,31,1.50
2009,03,14,03,32,0.80
2009,03,14,03,33,0.10
2009,03,14,03,34,0.00
2009,03,14,03,35,1.40
2009,03,14,03,36,3.40
2009,03,14,03,37,1.20
2009,03,14,03,38,1.60
2009,03,14,03,39,0.00
2009,03,14,03,40,0.80
2009,03,14,03,41,3.80
2009,03,14,03,42,1.40
2009,03,14,03,43,0.20
2009,03,14,03,44,0.00
2009,03,14,03,45,0.00
2009,03,14,03,46,0.00
2009,03,14,03,47,5.70
2009,03,14,03,48,1.40
2009,03,14,03,49,0.00
2009,03,14,03,50,0.00
2009,03,14,03,51,0.00
2009,03,14,03,52,1.10
2009,03,14,03,53,1.30
2009,03,14,03,54,0.10
2009,03,14,03,55,0.00
2009,03,14,03,56,1.50
2009,03,14,03,57,0.00
2009,03,14,03,58,0.00
2009,03,14,03,59,0.00
2009,03,14,04,00,0.10
2009,03,14,04,01,1.50
2009,03,14,04,02,1.40
2009,03,14,04,03,0.10
2009,03,14,04,04,4.30
2009,03,14,04,05,5.90
2009,03,14,04,06,2.20
2009,03,14,04,07,2.00
2009,03,14,04,08,2.00
2009,03,14,04,09,1.30
2009,03,14,04,10,6.80
2009,03,14,04,11,5.50
2009,03,14,04,12,4.30
2009,03,14,04,13,2.60
2009,03,14,04,14,5.40
2009,03,14,04,15,4.30
2009,03,14,04,16,2.80
2009,03,14,04,17,1.30
2009,03,14,04,18,4.70
2009,03,14,04,19,3.50
2009,03,14,04,20,4.40
2009,03,14,04,21,3.80
2009,03,14,04,22,6.90
2009,03,14,04,23,4.40
2009,03,14,04,24,2.80
2009,03,14,04,25,6.50
2009,03,14,04,26,2.60
2009,03,14,04,27,1.00
2009,03,14,04,28,5.50
2009,03,14,04,29,5.20
2009,03,14,04,30,5.80
2009,03,14,04,31,2.70
2009,03,14,04,32,3.10
2009,03,14,04,33,2.30
2009,03,14,04,34,1.60
2009,03,14,04,35,2.60
2009,03,14,04,36,0.00
2009,03,14,04,37,3.30
2009,03,14,04,38,3.80
2009,03,14,04,39,1.20
2009,03,14,04,40,3.60
2009,03,14,04,41,1.60
2009,03,14,04,42,2.80
2009,03,14,04,43,3.70
2009,03,14,04,44,0.60
2009,03,14,04,45,1.90
2009,03,14,04,46,6.10
2009,03,14,04,47,1.30
2009,03,14,04,48,1.40
2009,03,14,04,49,1.80
2009,03,14,04,50,2.70
2009,03,14,04,51,2.10
2009,03,14,04,52,2.90
2009,03,14,04,53,1.30
2009,03,14,04,54,3.30
2009,03,14,04,55,7.10
2009,03,14,04,56,1.50
2009,03,14,04,57,1.30
2009,03,14,04,58,1.70
2009,03,14,04,59,2.10
2009,03,14,05,00,1.80
2009,03,14,05,01,4.50
2009,03,14,05,02,6.60
2009,03,14,05,03,1.10
2009,03,14,05,04,1.40
2009,03,14,05,05,0.00
2009,03,14,05,06,0.10
2009,03,14,05,07,4.70
2009,03,14,05,08,2.50
2009,03,14,05,09,1.20
2009,03,14,05,10,3.90
2009,03,14,05,11,5.00
2009,03,14,05,12,1.90
2009,03,14,05,13,4.40
2009,03,14,05,14,5.30
2009,03,14,05,15,3.30
2009,03,14,05,16,5.00
2009,03,14,05,17,1.30
2009,03,14,05,18,2.60
2009,03,14,05,19,5.70
2009,03,14,05,20,2.80
2009,03,14,05,21,6.30
2009,03,14,05,22,7.30
2009,03,14,05,23,5.50
2009,03,14,05,24,4.60
2009,03,14,05,25,6.20
2009,03,14,05,26,4.70
2009,03,14,05,27,1.30
2009,03,14,05,28,5.90
2009,03,14,05,29,1.30
2009,03,14,05,30,5.80
2009,03,14,05,31,6.20
2009,03,14,05,32,5.10
2009,03,14,05,33,5.80
2009,03,14,05,34,4.50
2009,03,14,05,35,4.40
2009,03,14,05,36,1.20
2009,03,14,05,37,4.60
2009,03,14,05,38,5.40
2009,03,14,05,39,3.70
2009,03,14,05,40,0.70
2009,03,14,05,41,8.10
2009,03,14,05,42,6.00
2009,03,14,05,43,4.70
2009,03,14,05,44,4.60
2009,03,14,05,45,3.50
2009,03,14,05,46,6.90
2009,03,14,05,47,6.40
2009,03,14,05,48,7.30
2009,03,14,05,49,4.80
2009,03,14,05,50,4.90
2009,03,14,05,51,4.30
2009,03,14,05,52,8.10
2009,03,14,05,53,6.90
2009,03,14,05,54,3.30
2009,03,14,05,55,3.80
2009,03,14,05,56,0.90
2009,03,14,05,57,2.70
2009,03,14,05,58,1.10
2009,03,14,05,59,0.40
2009,03,14,06,00,3.00
2009,03,14,06,01,1.90
2009,03,14,06,02,3.60
2009,03,14,06,03,3.80
2009,03,14,06,04,1.50
2009,03,14,06,05,2.20
2009,03,14,06,06,1.50
2009,03,14,06,07,0.00
2009,03,14,06,08,0.00
2009,03,14,06,09,0.00
2009,03,14,06,10,0.00
2009,03,14,06,11,0.00
2009,03,14,06,12,0.00
2009,03,14,06,13,0.00
2009,03,14,06,14,0.20
2009,03,14,06,15,1.60
2009,03,14,06,16,0.10
2009,03,14,06,17,0.00
2009,03,14,06,18,0.00
2009,03,14,06,19,0.00
2009,03,14,06,20,0.00
2009,03,14,06,21,0.00
2009,03,14,06,22,0.00
2009,03,14,06,23,0.00
2009,03,14,06,24,0.00
2009,03,14,06,25,0.00
2009,03,14,06,26,0.00
2009,03,14,06,27,2.20
2009,03,14,06,28,2.80
2009,03,14,06,29,2.70
2009,03,14,06,30,3.80
2009,03,14,06,31,3.70
2009,03,14,06,32,3.10
2009,03,14,06,33,4.40
2009,03,14,06,34,2.90
2009,03,14,06,35,2.20
2009,03,14,06,36,5.50
2009,03,14,06,37,3.90
2009,03,14,06,38,4.60
2009,03,14,06,39,1.10
2009,03,14,06,40,5.60
2009,03,14,06,41,5.50
2009,03,14,06,42,4.30
2009,03,14,06,43,0.30
2009,03,14,06,44,1.40
2009,03,14,06,45,1.00
2009,03,14,06,46,2.20
2009,03,14,06,47,1.90
2009,03,14,06,48,1.30
2009,03,14,06,49,0.20
2009,03,14,06,50,0.30
2009,03,14,06,51,0.00
2009,03,14,06,52,0.00
2009,03,14,06,53,0.00
2009,03,14,06,54,0.00
2009,03,14,06,55,0.10
2009,03,14,06,56,1.00
2009,03,14,06,57,1.90
2009,03,14,06,58,2.90
2009,03,14,06,59,0.30
2009,03,14,07,00,0.20
2009,03,14,07,01,1.10
2009,03,14,07,02,1.20
2009,03,14,07,03,0.50
2009,03,14,07,04,1.00
2009,03,14,07,05,2.60
2009,03,14,07,06,2.10
2009,03,14,07,07,1.00
2009,03,14,07,08,1.80
2009,03,14,07,09,1.30
2009,03,14,07,10,1.00
2009,03,14,07,11,2.70
2009,03,14,07,12,1.90
2009,03,14,07,13,1.60
2009,03,14,07,14,1.00
2009,03,14,07,15,3.30
2009,03,14,07,16,0.80
2009,03,14,07,17,4.00
2009,03,14,07,18,1.10
2009,03,14,07,19,2.90
2009,03,14,07,20,2.40
2009,03,14,07,21,2.40
2009,03,14,07,22,1.40
2009,03,14,07,23,4.30
2009,03,14,07,24,4.40
2009,03,14,07,25,3.50
2009,03,14,07,26,2.90
2009,03,14,07,27,4.70
2009,03,14,07,28,3.50
2009,03,14,07,29,2.90
2009,03,14,07,30,1.10
2009,03,14,07,31,1.60
2009,03,14,07,32,1.90
2009,03,14,07,33,3.60
2009,03,14,07,34,3.50
2009,03,14,07,35,2.40
2009,03,14,07,36,1.20
2009,03,14,07,37,0.50
2009,03,14,07,38,2.50
2009,03,14,07,39,1.40
2009,03,14,07,40,3.50
2009,03,14,07,41,4.10
2009,03,14,07,42,2.90
2009,03,14,07,43,2.20
2009,03,14,07,44,1.00
2009,03,14,07,45,2.00
2009,03,14,07,46,3.10
2009,03,14,07,47,2.90
2009,03,14,07,48,1.90
2009,03,14,07,49,0.30
2009,03,14,07,50,0.80
2009,03,14,07,51,1.30
2009,03,14,07,52,0.30
2009,03,14,07,53,1.70
2009,03,14,07,54,0.60
2009,03,14,07,55,1.60
2009,03,14,07,56,0.00
2009,03,14,07,57,2.00
2009,03,14,07,58,1.30
2009,03,14,07,59,2.20
2009,03,14,08,00,0.80
2009,03,14,08,01,1.20
2009,03,14,08,02,2.40
2009,03,14,08,03,2.10
2009,03,14,08,04,1.70
2009,03,14,08,05,2.40
2009,03,14,08,06,1.60
2009,03,14,08,07,0.70
2009,03,14,08,08,2.30
2009,03,14,08,09,3.40
2009,03,14,08,10,5.40
2009,03,14,08,11,2.60
2009,03,14,08,12,3.30
2009,03,14,08,13,1.20
2009,03,14,08,14,4.90
2009,03,14,08,15,3.90
2009,03,14,08,16,4.80
2009,03,14,08,17,2.80
2009,03,14,08,18,2.20
2009,03,14,08,19,3.50
2009,03,14,08,20,4.90
2009,03,14,08,21,3.00
2009,03,14,08,22,2.10
2009,03,14,08,23,1.20
2009,03,14,08,24,0.50
2009,03,14,08,25,0.90
2009,03,14,08,26,0.20
2009,03,14,08,27,0.20
2009,03,14,08,28,4.00
2009,03,14,08,29,4.30
2009,03,14,08,30,3.70
2009,03,14,08,31,4.40
2009,03,14,08,32,1.70
2009,03,14,08,33,2.70
2009,03,14,08,34,5.80
2009,03,14,08,35,2.30
2009,03,14,08,36,2.90
2009,03,14,08,37,0.00
2009,03,14,08,38,0.70
2009,03,14,08,39,3.70
2009,03,14,08,40,0.30
2009,03,14,08,41,3.70
2009,03,14,08,42,3.80
2009,03,14,08,43,1.40
2009,03,14,08,44,4.90
2009,03,14,08,45,2.60
2009,03,14,08,46,2.30
2009,03,14,08,47,0.60
2009,03,14,08,48,0.00
2009,03,14,08,49,0.00
2009,03,14,08,50,0.40
2009,03,14,08,51,0.00
2009,03,14,08,52,1.00
2009,03,14,08,53,0.00
2009,03,14,08,54,1.20
2009,03,14,08,55,2.00
2009,03,14,08,56,1.70
2009,03,14,08,57,0.80
2009,03,14,08,58,1.70
2009,03,14,08,59,0.30
2009,03,14,09,00,0.00
2009,03,14,09,01,0.30
2009,03,14,09,02,0.00
2009,03,14,09,03,0.10
2009,03,14,09,04,0.00
2009,03,14,09,05,0.00
2009,03,14,09,06,0.00
2009,03,14,09,07,0.00
2009,03,14,09,08,0.00
2009,03,14,09,09,0.00
2009,03,14,09,10,0.00
2009,03,14,09,11,0.00
2009,03,14,09,12,0.00
2009,03,14,09,13,0.00
2009,03,14,09,14,0.00
2009,03,14,09,15,0.20
2009,03,14,09,16,0.00
2009,03,14,09,17,0.00
2009,03,14,09,18,0.00
2009,03,14,09,19,3.10
2009,03,14,09,20,2.00
2009,03,14,09,21,2.40
2009,03,14,09,22,3.00
2009,03,14,09,23,1.50
2009,03,14,09,24,0.40
2009,03,14,09,25,2.20
2009,03,14,09,26,0.30
2009,03,14,09,27,1.10
2009,03,14,09,28,3.30
2009,03,14,09,29,2.80
2009,03,14,09,30,3.50
2009,03,14,09,31,4.90
2009,03,14,09,32,2.40
2009,03,14,09,33,0.50
2009,03,14,09,34,1.00
2009,03,14,09,35,0.00
2009,03,14,09,36,0.00
2009,03,14,09,37,0.00
2009,03,14,09,38,0.00
2009,03,14,09,39,0.00
2009,03,14,09,40,0.10
2009,03,14,09,41,0.00
2009,03,14,09,42,0.10
2009,03,14,09,43,0.00
2009,03,14,09,44,1.60
2009,03,14,09,45,0.00
2009,03,14,09,46,0.00
2009,03,14,09,47,0.00
2009,03,14,09,48,1.40
2009,03,14,09,49,0.00
2009,03,14,09,50,0.00
2009,03,14,09,51,0.70
2009,03,14,09,52,0.10
2009,03,14,09,53,0.00
2009,03,14,09,54,0.10
2009,03,14,09,55,0.00
2009,03,14,09,56,1.00
2009,03,14,09,57,0.30
2009,03,14,09,58,0.40
2009,03,14,09,59,2.10
2009,03,14,10,00,3.00
2009,03,14,10,01,3.20
2009,03,14,10,02,2.90
2009,03,14,10,03,0.20
2009,03,14,10,04,0.00
2009,03,14,10,05,0.20
2009,03,14,10,06,1.00
2009,03,14,10,07,3.60
2009,03,14,10,08,0.90
2009,03,14,10,09,4.60
2009,03,14,10,10,3.60
2009,03,14,10,11,1.10
2009,03,14,10,12,2.40
2009,03,14,10,13,2.90
2009,03,14,10,14,0.20
2009,03,14,10,15,0.10
2009,03,14,10,16,1.10
2009,03,14,10,17,1.60
2009,03,14,10,18,0.20
2009,03,14,10,19,1.40
2009,03,14,10,20,1.80
2009,03,14,10,21,0.20
2009,03,14,10,22,0.10
2009,03,14,10,23,0.90
2009,03,14,10,24,0.00
2009,03,14,10,25,0.40
2009,03,14,10,26,2.90
2009,03,14,10,27,4.70
2009,03,14,10,28,2.90
2009,03,14,10,29,0.30
2009,03,14,10,30,1.40
2009,03,14,10,31,1.80
2009,03,14,10,32,0.90
2009,03,14,10,33,0.10
2009,03,14,10,34,1.50
2009,03,14,10,35,1.90
2009,03,14,10,36,2.90
2009,03,14,10,37,2.60
2009,03,14,10,38,1.20
2009,03,14,10,39,1.20
2009,03,14,10,40,1.50
2009,03,14,10,41,1.00
2009,03,14,10,42,0.30
2009,03,14,10,43,0.60
2009,03,14,10,44,2.40
2009,03,14,10,45,3.30
2009,03,14,10,46,3.00
2009,03,14,10,47,0.00
2009,03,14,10,48,0.00
2009,03,14,10,49,2.10
2009,03,14,10,50,0.40
2009,03,14,10,51,6.90
2009,03,14,10,52,6.00
2009,03,14,10,53,6.10
2009,03,14,10,54,1.40
2009,03,14,10,55,0.00
2009,03,14,10,56,1.70
2009,03,14,10,57,2.90
2009,03,14,10,58,3.30
2009,03,14,10,59,5.50
2009,03,14,11,00,0.70
2009,03,14,11,01,1.40
2009,03,14,11,02,4.80
2009,03,14,11,03,2.50
2009,03,14,11,04,1.90
2009,03,14,11,05,1.90
2009,03,14,11,06,1.90
2009,03,14,11,07,2.30
2009,03,14,11,08,1.70
2009,03,14,11,09,4.10
2009,03,14,11,10,4.90
2009,03,14,11,11,0.40
2009,03,14,11,12,3.10
2009,03,14,11,13,3.70
2009,03,14,11,14,3.90
2009,03,14,11,15,3.50
2009,03,14,11,16,1.00
2009,03,14,11,17,0.20
2009,03,14,11,18,3.80
2009,03,14,11,19,2.40
2009,03,14,11,20,2.60
2009,03,14,11,21,5.80
2009,03,14,11,22,4.60
2009,03,14,11,23,4.40
2009,03,14,11,24,0.50
2009,03,14,11,25,2.10
2009,03,14,11,26,0.10
2009,03,14,11,27,0.20
2009,03,14,11,28,0.50
2009,03,14,11,29,0.30
2009,03,14,11,30,2.90
2009,03,14,11,31,2.20
2009,03,14,11,32,0.60
2009,03,14,11,33,4.00
2009,03,14,11,34,5.00
2009,03,14,11,35,4.20
2009,03,14,11,36,0.40
2009,03,14,11,37,3.50
2009,03,14,11,38,8.20
2009,03,14,11,39,6.00
2009,03,14,11,40,7.10
2009,03,14,11,41,2.90
2009,03,14,11,42,3.10
2009,03,14,11,43,5.60
2009,03,14,11,44,1.10
2009,03,14,11,45,2.90
2009,03,14,11,46,11.60
2009,03,14,11,47,10.40
2009,03,14,11,48,1.40
2009,03,14,11,49,0.60
2009,03,14,11,50,2.10
2009,03,14,11,51,4.70
2009,03,14,11,52,7.80
2009,03,14,11,53,5.70
2009,03,14,11,54,7.30
2009,03,14,11,55,2.20
2009,03,14,11,56,2.50
2009,03,14,11,57,6.10
2009,03,14,11,58,6.50
2009,03,14,11,59,4.70
2009,03,14,12,00,5.70
2009,03,14,12,01,2.50
2009,03,14,12,02,6.20
2009,03,14,12,03,2.80
2009,03,14,12,04,1.80
2009,03,14,12,05,3.00
2009,03,14,12,06,2.30
2009,03,14,12,07,2.10
2009,03,14,12,08,3.50
2009,03,14,12,09,1.60
2009,03,14,12,10,5.70
2009,03,14,12,11,3.80
2009,03,14,12,12,4.70
2009,03,14,12,13,3.30
2009,03,14,12,14,1.50
2009,03,14,12,15,1.80
2009,03,14,12,16,9.50
2009,03,14,12,17,3.80
2009,03,14,12,18,4.80
2009,03,14,12,19,5.00
2009,03,14,12,20,0.60
2009,03,14,12,21,3.90
2009,03,14,12,22,4.10
2009,03,14,12,23,0.40
2009,03,14,12,24,4.20
2009,03,14,12,25,0.40
2009,03,14,12,26,0.30
2009,03,14,12,27,0.30
2009,03,14,12,28,4.60
2009,03,14,12,29,0.40
2009,03,14,12,30,3.80
2009,03,14,12,31,10.40
2009,03,14,12,32,10.50
2009,03,14,12,33,2.10
2009,03,14,12,34,6.30
2009,03,14,12,35,8.70
2009,03,14,12,36,10.20
2009,03,14,12,37,5.10
2009,03,14,12,38,9.00
2009,03,14,12,39,13.90
2009,03,14,12,40,9.70
2009,03,14,12,41,6.00
2009,03,14,12,42,2.80
2009,03,14,12,43,6.70
2009,03,14,12,44,4.60
2009,03,14,12,45,7.40
2009,03,14,12,46,7.70
2009,03,14,12,47,8.90
2009,03,14,12,48,1.90
2009,03,14,12,49,6.20
2009,03,14,12,50,8.90
2009,03,14,12,51,6.70
2009,03,14,12,52,11.30
2009,03,14,12,53,8.40
2009,03,14,12,54,11.50
2009,03,14,12,55,9.50
2009,03,14,12,56,4.90
2009,03,14,12,57,2.90
2009,03,14,12,58,4.30
2009,03,14,12,59,9.20
2009,03,14,13,00,3.30
2009,03,14,13,01,5.90
2009,03,14,13,02,5.70
2009,03,14,13,03,9.10
2009,03,14,13,04,5.60
2009,03,14,13,05,2.10
2009,03,14,13,06,0.00
2009,03,14,13,07,1.20
2009,03,14,13,08,4.60
2009,03,14,13,09,11.30
2009,03,14,13,10,4.10
2009,03,14,13,11,3.30
2009,03,14,13,12,8.50
2009,03,14,13,13,10.70
2009,03,14,13,14,9.40
2009,03,14,13,15,6.20
2009,03,14,13,16,12.00
2009,03,14,13,17,15.10
2009,03,14,13,18,10.90
2009,03,14,13,19,12.80
2009,03,14,13,20,6.50
2009,03,14,13,21,4.30
2009,03,14,13,22,7.80
2009,03,14,13,23,5.50
2009,03,14,13,24,4.40
2009,03,14,13,25,13.30
2009,03,14,13,26,3.70
2009,03,14,13,27,4.40
2009,03,14,13,28,4.00
2009,03,14,13,29,3.20
2009,03,14,13,30,3.10
2009,03,14,13,31,8.50
2009,03,14,13,32,4.90
2009,03,14,13,33,8.70
2009,03,14,13,34,6.70
2009,03,14,13,35,3.50
2009,03,14,13,36,8.70
2009,03,14,13,37,10.20
2009,03,14,13,38,7.90
2009,03,14,13,39,5.80
2009,03,14,13,40,10.40
2009,03,14,13,41,11.20
2009,03,14,13,42,11.10
2009,03,14,13,43,6.40
2009,03,14,13,44,7.70
2009,03,14,13,45,4.00
2009,03,14,13,46,6.80
2009,03,14,13,47,9.30
2009,03,14,13,48,4.90
2009,03,14,13,49,5.40
2009,03,14,13,50,6.70
2009,03,14,13,51,1.80
2009,03,14,13,52,3.50
2009,03,14,13,53,3.50
2009,03,14,13,54,9.50
2009,03,14,13,55,1.20
2009,03,14,13,56,6.30
2009,03,14,13,57,5.20
2009,03,14,13,58,3.10
2009,03,14,13,59,4.10
2009,03,14,14,00,2.90
2009,03,14,14,01,2.90
2009,03,14,14,02,4.30
2009,03,14,14,03,7.10
2009,03,14,14,04,7.30
2009,03,14,14,05,10.80
2009,03,14,14,06,4.80
2009,03,14,14,07,10.80
2009,03,14,14,08,10.60
2009,03,14,14,09,8.50
2009,03,14,14,10,13.00
2009,03,14,14,11,7.90
2009,03,14,14,12,4.90
2009,03,14,14,13,5.40
2009,03,14,14,14,2.40
2009,03,14,14,15,4.10
2009,03,14,14,16,9.50
2009,03,14,14,17,10.00
2009,03,14,14,18,4.60
2009,03,14,14,19,9.60
2009,03,14,14,20,9.20
2009,03,14,14,21,4.70
2009,03,14,14,22,5.80
2009,03,14,14,23,7.40
2009,03,14,14,24,2.70
2009,03,14,14,25,9.10
2009,03,14,14,26,9.90
2009,03,14,14,27,3.60
2009,03,14,14,28,3.50
2009,03,14,14,29,3.30
2009,03,14,14,30,3.80
2009,03,14,14,31,5.30
2009,03,14,14,32,6.60
2009,03,14,14,33,6.50
2009,03,14,14,34,5.90
2009,03,14,14,35,0.20
2009,03,14,14,36,0.70
2009,03,14,14,37,3.70
2009,03,14,14,38,7.00
2009,03,14,14,39,9.80
2009,03,14,14,40,3.80
2009,03,14,14,41,6.80
2009,03,14,14,42,12.90
2009,03,14,14,43,12.40
2009,03,14,14,44,2.10
2009,03,14,14,45,3.90
2009,03,14,14,46,1.10
2009,03,14,14,47,5.60
2009,03,14,14,48,4.10
2009,03,14,14,49,4.30
2009,03,14,14,50,4.00
2009,03,14,14,51,5.80
2009,03,14,14,52,9.70
2009,03,14,14,53,6.30
2009,03,14,14,54,13.50
2009,03,14,14,55,10.10
2009,03,14,14,56,12.70
2009,03,14,14,57,8.60
2009,03,14,14,58,14.20
2009,03,14,14,59,12.60
2009,03,14,15,00,5.50
2009,03,14,15,01,4.50
2009,03,14,15,02,6.50
2009,03,14,15,03,9.80
2009,03,14,15,04,6.70
2009,03,14,15,05,7.10
2009,03,14,15,06,10.50
2009,03,14,15,07,10.50
2009,03,14,15,08,10.50
2009,03,14,15,09,2.90
2009,03,14,15,10,1.70
2009,03,14,15,11,4.00
2009,03,14,15,12,5.50
2009,03,14,15,13,3.50
2009,03,14,15,14,1.30
2009,03,14,15,15,4.40
2009,03,14,15,16,7.00
2009,03,14,15,17,3.10
2009,03,14,15,18,4.20
2009,03,14,15,19,6.20
2009,03,14,15,20,3.90
2009,03,14,15,21,2.50
2009,03,14,15,22,3.90
2009,03,14,15,23,3.10
2009,03,14,15,24,3.30
2009,03,14,15,25,4.60
2009,03,14,15,26,5.00
2009,03,14,15,27,7.50
2009,03,14,15,28,10.80
2009,03,14,15,29,4.70
2009,03,14,15,30,7.90
2009,03,14,15,31,6.30
2009,03,14,15,32,3.30
2009,03,14,15,33,4.10
2009,03,14,15,34,8.00
2009,03,14,15,35,4.10
2009,03,14,15,36,5.80
2009,03,14,15,37,6.10
2009,03,14,15,38,8.90
2009,03,14,15,39,3.70
2009,03,14,15,40,4.30
2009,03,14,15,41,4.80
2009,03,14,15,42,5.50
2009,03,14,15,43,12.10
2009,03,14,15,44,3.90
2009,03,14,15,45,3.60
2009,03,14,15,46,3.80
2009,03,14,15,47,8.40
2009,03,14,15,48,4.00
2009,03,14,15,49,5.40
2009,03,14,15,50,10.80
2009,03,14,15,51,9.60
2009,03,14,15,52,4.50
2009,03,14,15,53,5.10
2009,03,14,15,54,8.50
2009,03,14,15,55,8.50
2009,03,14,15,56,6.50
2009,03,14,15,57,8.00
2009,03,14,15,58,3.60
2009,03,14,15,59,5.10
2009,03,14,16,00,6.90
2009,03,14,16,01,6.50
2009,03,14,16,02,3.30
2009,03,14,16,03,4.00
2009,03,14,16,04,4.30
2009,03,14,16,05,6.90
2009,03,14,16,06,11.30
2009,03,14,16,07,11.80
2009,03,14,16,08,2.70
2009,03,14,16,09,5.30
2009,03,14,16,10,9.00
2009,03,14,16,11,4.10
2009,03,14,16,12,10.80
2009,03,14,16,13,12.80
2009,03,14,16,14,11.00
2009,03,14,16,15,9.90
2009,03,14,16,16,11.30
2009,03,14,16,17,6.40
2009,03,14,16,18,8.10
2009,03,14,16,19,7.40
2009,03,14,16,20,4.30
2009,03,14,16,21,10.30
2009,03,14,16,22,5.50
2009,03,14,16,23,6.00
2009,03,14,16,24,10.50
2009,03,14,16,25,6.80
2009,03,14,16,26,12.10
2009,03,14,16,27,5.90
2009,03,14,16,28,2.50
2009,03,14,16,29,17.90
2009,03,14,16,30,11.90
2009,03,14,16,31,14.20
2009,03,14,16,32,8.90
2009,03,14,16,33,6.30
2009,03,14,16,34,6.80
2009,03,14,16,35,10.00
2009,03,14,16,36,7.20
2009,03,14,16,37,11.80
2009,03,14,16,38,7.80
2009,03,14,16,39,8.30
2009,03,14,16,40,10.40
2009,03,14,16,41,12.00
2009,03,14,16,42,3.00
2009,03,14,16,43,5.80
2009,03,14,16,44,6.40
2009,03,14,16,45,4.60
2009,03,14,16,46,4.70
2009,03,14,16,47,6.00
2009,03,14,16,48,10.60
2009,03,14,16,49,9.00
2009,03,14,16,50,4.70
2009,03,14,16,51,6.30
2009,03,14,16,52,2.50
2009,03,14,16,53,9.00
2009,03,14,16,54,8.90
2009,03,14,16,55,7.80
2009,03,14,16,56,7.90
2009,03,14,16,57,3.50
2009,03,14,16,58,5.40
2009,03,14,16,59,5.70
2009,03,14,17,00,8.90
2009,03,14,17,01,5.70
2009,03,14,17,02,10.10
2009,03,14,17,03,6.20
2009,03,14,17,04,7.10
2009,03,14,17,05,6.40
2009,03,14,17,06,8.00
2009,03,14,17,07,5.10
2009,03,14,17,08,3.80
2009,03,14,17,09,5.10
2009,03,14,17,10,3.30
2009,03,14,17,11,5.40
2009,03,14,17,12,7.20
2009,03,14,17,13,11.80
2009,03,14,17,14,5.50
2009,03,14,17,15,5.90
2009,03,14,17,16,5.90
2009,03,14,17,17,4.00
2009,03,14,17,18,6.50
2009,03,14,17,19,4.90
2009,03,14,17,20,3.20
2009,03,14,17,21,3.30
2009,03,14,17,22,0.60
2009,03,14,17,23,4.20
2009,03,14,17,24,5.40
2009,03,14,17,25,5.00
2009,03,14,17,26,4.90
2009,03,14,17,27,3.00
2009,03,14,17,28,4.40
2009,03,14,17,29,7.00
2009,03,14,17,30,4.70
2009,03,14,17,31,6.40
2009,03,14,17,32,2.90
2009,03,14,17,33,8.30
2009,03,14,17,34,6.60
2009,03,14,17,35,4.90
2009,03,14,17,36,4.60
2009,03,14,17,37,8.00
2009,03,14,17,38,3.70
2009,03,14,17,39,5.40
2009,03,14,17,40,5.50
2009,03,14,17,41,5.60
2009,03,14,17,42,5.40
2009,03,14,17,43,3.00
2009,03,14,17,44,6.60
2009,03,14,17,45,1.40
2009,03,14,17,46,4.80
2009,03,14,17,47,1.80
2009,03,14,17,48,6.30
2009,03,14,17,49,3.50
2009,03,14,17,50,5.90
2009,03,14,17,51,4.30
2009,03,14,17,52,4.80
2009,03,14,17,53,9.00
2009,03,14,17,54,8.00
2009,03,14,17,55,2.60
2009,03,14,17,56,0.60
2009,03,14,17,57,0.60
2009,03,14,17,58,2.90
2009,03,14,17,59,6.00
2009,03,14,18,00,2.90
2009,03,14,18,01,7.00
2009,03,14,18,02,1.30
2009,03,14,18,03,5.70
2009,03,14,18,04,2.90